EN

Hourly Weather Abzac

Today, 25 November, Wednesday

Time Temperature Precipitation Wind Pressure Humidity
00:00 +8°C° 0 mm 3 mps 759 mmHg 88%
01:00 +8°C° 0 mm 3 mps 759 mmHg 89%
02:00 +8°C° 0 mm 3 mps 759 mmHg 89%
03:00 +8°C° 0 mm 3 mps 758 mmHg 90%
04:00 +7°C° 0 mm 3 mps 758 mmHg 91%
05:00 +7°C° 0 mm 3 mps 758 mmHg 92%
06:00 +7°C° 0 mm 2 mps 758 mmHg 93%
07:00 +8°C° 0 mm 3 mps 758 mmHg 90%
08:00 +9°C° 0 mm 3 mps 758 mmHg 87%
09:00 +10°C° 0 mm 3 mps 758 mmHg 84%
10:00 +12°C° 0 mm 3 mps 758 mmHg 79%
11:00 +13°C° 0 mm 3 mps 758 mmHg 73%
12:00 +16°C° 0 mm 3 mps 758 mmHg 68%
13:00 +16°C° 0 mm 3 mps 758 mmHg 70%
14:00 +16°C° 0 mm 2 mps 757 mmHg 71%
15:00 +16°C° 0 mm 1 mps 757 mmHg 73%
16:00 +15°C° 0 mm 2 mps 757 mmHg 78%
17:00 +14°C° 0 mm 2 mps 757 mmHg 82%
18:00 +12°C° 0 mm 2 mps 758 mmHg 87%
19:00 +12°C° 0 mm 2 mps 758 mmHg 88%
20:00 +11°C° 0 mm 3 mps 758 mmHg 88%
21:00 +10°C° 0 mm 3 mps 759 mmHg 88%
22:00 +10°C° 0 mm 3 mps 759 mmHg 89%
23:00 +10°C° 0 mm 3 mps 759 mmHg 91%

Tomorrow, 26 November, Thursday

Time Temperature Precipitation Wind Pressure Humidity
00:00 +9°C° 0 mm 3 mps 759 mmHg 92%
01:00 +9°C° 0 mm 3 mps 759 mmHg 92%
02:00 +9°C° 0 mm 3 mps 759 mmHg 93%
03:00 +9°C° 0 mm 3 mps 759 mmHg 93%
04:00 +9°C° 0 mm 3 mps 759 mmHg 93%
05:00 +9°C° 0 mm 3 mps 759 mmHg 92%
06:00 +9°C° 0 mm 3 mps 759 mmHg 92%
07:00 +10°C° 0 mm 3 mps 759 mmHg 89%
08:00 +10°C° 0 mm 3 mps 759 mmHg 85%
09:00 +11°C° 0 mm 4 mps 759 mmHg 82%
10:00 +13°C° 0 mm 4 mps 759 mmHg 76%
11:00 +14°C° 0 mm 4 mps 759 mmHg 71%
12:00 +15°C° 0 mm 4 mps 759 mmHg 66%
13:00 +17°C° 0 mm 3 mps 759 mmHg 67%
14:00 +17°C° 0 mm 2 mps 759 mmHg 69%
15:00 +18°C° 0 mm 1 mps 759 mmHg 70%
16:00 +15°C° 0 mm 1 mps 759 mmHg 76%
17:00 +14°C° 0 mm 2 mps 759 mmHg 82%
18:00 +13°C° 0 mm 2 mps 759 mmHg 87%
19:00 +12°C° 0 mm 2 mps 759 mmHg 89%
20:00 +12°C° 0 mm 2 mps 759 mmHg 90%
21:00 +10°C° 0 mm 2 mps 760 mmHg 92%
22:00 +10°C° 0 mm 2 mps 760 mmHg 92%
23:00 +10°C° 0 mm 2 mps 759 mmHg 92%

Day after tomorrow, 27 November, Friday

Time Temperature Precipitation Wind Pressure Humidity
00:00 +9°C° 0 mm 2 mps 759 mmHg 93%
01:00 +9°C° 0 mm 2 mps 759 mmHg 93%
02:00 +9°C° 0 mm 2 mps 759 mmHg 94%
03:00 +9°C° 0 mm 2 mps 759 mmHg 94%
04:00 +8°C° 0 mm 2 mps 759 mmHg 94%
05:00 +8°C° 0 mm 2 mps 758 mmHg 95%
06:00 +8°C° 0 mm 2 mps 758 mmHg 95%
07:00 +9°C° 0 mm 2 mps 758 mmHg 93%
08:00 +9°C° 0 mm 2 mps 758 mmHg 90%
09:00 +10°C° 0 mm 2 mps 758 mmHg 88%
10:00 +12°C° 0 mm 3 mps 758 mmHg 83%
11:00 +13°C° 0 mm 3 mps 757 mmHg 79%
12:00 +16°C° 0 mm 3 mps 757 mmHg 75%
13:00 +16°C° 0 mm 3 mps 757 mmHg 75%
14:00 +16°C° 0 mm 2 mps 756 mmHg 74%
15:00 +16°C° 0 mm 2 mps 756 mmHg 74%
16:00 +15°C° 0 mm 2 mps 756 mmHg 79%
17:00 +14°C° 0 mm 2 mps 756 mmHg 84%
18:00 +12°C° 0 mm 2 mps 756 mmHg 89%
19:00 +12°C° 0 mm 2 mps 756 mmHg 88%
20:00 +11°C° 0 mm 3 mps 756 mmHg 87%
21:00 +10°C° 0 mm 3 mps 756 mmHg 86%
22:00 +10°C° 0 mm 3 mps 756 mmHg 86%
23:00 +10°C° 0 mm 3 mps 756 mmHg 86%

28 November, Saturday

Time Temperature Precipitation Wind Pressure Humidity
00:00 +9°C° 0 mm 3 mps 756 mmHg 86%
01:00 +9°C° 0 mm 3 mps 755 mmHg 85%
02:00 +9°C° 0 mm 3 mps 755 mmHg 84%
03:00 +9°C° 0 mm 3 mps 755 mmHg 83%
04:00 +9°C° 0 mm 3 mps 755 mmHg 83%
05:00 +9°C° 0 mm 3 mps 754 mmHg 83%
06:00 +9°C° 0 mm 3 mps 754 mmHg 83%
07:00 +10°C° 0 mm 3 mps 754 mmHg 80%
08:00 +11°C° 0 mm 3 mps 755 mmHg 78%
09:00 +11°C° 0 mm 3 mps 755 mmHg 75%
10:00 +12°C° 0 mm 3 mps 755 mmHg 72%
11:00 +14°C° 0 mm 3 mps 754 mmHg 69%
12:00 +16°C° 0 mm 3 mps 754 mmHg 65%
13:00 +16°C° 0 mm 3 mps 754 mmHg 67%
14:00 +16°C° 0 mm 3 mps 754 mmHg 68%
15:00 +16°C° 0 mm 2 mps 754 mmHg 69%
16:00 +15°C° 0 mm 2 mps 754 mmHg 73%
17:00 +14°C° 0 mm 2 mps 754 mmHg 77%
18:00 +12°C° 0 mm 2 mps 755 mmHg 82%
19:00 +12°C° 0 mm 2 mps 755 mmHg 82%
20:00 +12°C° 0 mm 2 mps 755 mmHg 83%
21:00 +10°C° 0 mm 2 mps 756 mmHg 83%
22:00 +10°C° 0 mm 2 mps 756 mmHg 81%
23:00 +10°C° 0 mm 2 mps 756 mmHg 79%

29 November, Sunday

Time Temperature Precipitation Wind Pressure Humidity
00:00 +9°C° 0 mm 2 mps 756 mmHg 77%
01:00 +9°C° 0 mm 2 mps 756 mmHg 75%
02:00 +9°C° 0 mm 2 mps 756 mmHg 73%
03:00 +9°C° 0 mm 2 mps 756 mmHg 72%
04:00 +8°C° 0 mm 2 mps 756 mmHg 71%
05:00 +8°C° 0 mm 2 mps 756 mmHg 71%
06:00 +8°C° 0 mm 2 mps 757 mmHg 70%
07:00 +8°C° 0 mm 2 mps 757 mmHg 68%
08:00 +9°C° 0 mm 2 mps 757 mmHg 66%
09:00 +10°C° 0 mm 2 mps 757 mmHg 64%
10:00 +12°C° 0 mm 2 mps 757 mmHg 60%
11:00 +14°C° 0 mm 2 mps 757 mmHg 56%
12:00 +15°C° 0 mm 2 mps 757 mmHg 52%
13:00 +15°C° 0 mm 2 mps 757 mmHg 55%
14:00 +15°C° 0 mm 2 mps 757 mmHg 59%
15:00 +15°C° 0 mm 2 mps 757 mmHg 62%
16:00 +13°C° 0 mm 2 mps 757 mmHg 68%
17:00 +10°C° 0 mm 2 mps 758 mmHg 75%
18:00 +8°C° 0 mm 2 mps 758 mmHg 81%
19:00 +8°C° 0 mm 2 mps 758 mmHg 82%
20:00 +7°C° 0 mm 2 mps 759 mmHg 82%
21:00 +6°C° 0 mm 2 mps 759 mmHg 83%
22:00 +6°C° 0 mm 2 mps 759 mmHg 85%
23:00 +5°C° 0 mm 2 mps 759 mmHg 86%

30 November, Monday

Time Temperature Precipitation Wind Pressure Humidity
00:00 +5°C° 0 mm 2 mps 759 mmHg 88%
01:00 +4°C° 0 mm 2 mps 759 mmHg 89%
02:00 +4°C° 0 mm 2 mps 760 mmHg 91%
03:00 +4°C° 0 mm 2 mps 760 mmHg 92%
04:00 +4°C° 0 mm 2 mps 760 mmHg 92%
05:00 +3°C° 0 mm 2 mps 760 mmHg 92%
06:00 +4°C° 0 mm 1 mps 760 mmHg 92%
07:00 +5°C° 0 mm 1 mps 760 mmHg 89%
08:00 +5°C° 0 mm 1 mps 760 mmHg 85%
09:00 +6°C° 0 mm 1 mps 761 mmHg 82%
10:00 +8°C° 0 mm 1 mps 761 mmHg 77%
11:00 +9°C° 0 mm 1 mps 760 mmHg 71%
12:00 +11°C° 0 mm 1 mps 760 mmHg 66%
13:00 +11°C° 0 mm 1 mps 760 mmHg 67%
14:00 +10°C° 0 mm 2 mps 760 mmHg 67%
15:00 +10°C° 0 mm 2 mps 760 mmHg 68%
16:00 +8°C° 0 mm 2 mps 760 mmHg 73%
17:00 +7°C° 0 mm 2 mps 761 mmHg 78%
18:00 +5°C° 0 mm 2 mps 761 mmHg 83%
19:00 +4°C° 0 mm 2 mps 761 mmHg 84%
20:00 +4°C° 0 mm 2 mps 761 mmHg 85%
21:00 +4°C° 0 mm 1 mps 762 mmHg 86%
22:00 +4°C° 0 mm 1 mps 762 mmHg 88%
23:00 +4°C° 0 mm 1 mps 762 mmHg 89%
Show more